This demonstration page uses our WeatherBlox Daily Observations layout. Learn more.

Left ArrowRight Arrow

Hourly Observations for April 9, 2015

Temp ( °F °C ) Dew Point ( °F °C ) Humidity (%) Winds ( mph kmh ) Pressure ( in mb ) Visibility ( mi km ) Precip ( " mm )
12:37 am 00:37 Cloudy with Light Rain 43 6.1 42 5.6 97 97 NNE 15 24 29.74 1007 2 3 0.01 0.25
12:45 am 00:45 Cloudy with Light Rain 43 6.1 42 5.6 97 97 NNE 16 26 29.71 1006 3 4 0.01 0.25
12:53 am 00:53 Cloudy with Light Rain 43 6.1 42 5.6 97 97 NNE 15 24 29.68 1005 4 6 0.01 0.25
1:34 am 01:34 Cloudy with Light Rain 43 6 43 6 100 100 NNE 13 20 29.71 1006 3 4 0.00 0.00
1:53 am 01:53 Cloudy with Light Rain 43 6.1 42 5.6 97 97 NNE 12 19 29.67 1005 3 5 0.03 0.76
2:10 am 02:10 Cloudy with Light Rain 43 6 43 6 100 100 N 10 17 29.71 1006 3 5 0.00 0.00
2:20 am 02:20 Cloudy with Rain 43 6 43 6 100 100 N 10 17 29.71 1006 3 4 0.00 0.00
2:33 am 02:33 Cloudy with Rain 43 6.1 42 5.6 97 97 N 13 20 29.71 1006 3 5 0.04 1.02
2:53 am 02:53 Cloudy with Light Rain 43 6.1 41 5 93 93 N 14 22 29.68 1005 4 6 0.06 1.52
3:08 am 03:08 Cloudy with Rain 43 6 41 5 93 93 N 15 24 29.71 1006 4 6 0.00 0.00
3:40 am 03:40 Cloudy with Light Rain 43 6 41 5 93 93 N 17 28 29.71 1006 8 13 0.00 0.00
3:53 am 03:53 Cloudy 43 6.1 41 5 93 93 N 17 28 29.65 1004 10 16 0.03 0.76
4:51 am 04:51 Cloudy 43 6 41 5 93 93 N 14 22 29.68 1005 10 16 0.00 0.00
4:53 am 04:53 Cloudy 43 6.1 41 5 93 93 N 14 22 29.65 1004 10 16 0.00 0.00
5:17 am 05:17 Cloudy 42 5.6 40 4.4 92 92 N 16 26 29.68 1005 10 16 0.00 0.00
5:53 am 05:53 Cloudy 42 5.6 40 4.4 92 92 N 15 24 29.67 1005 8 13 0.00 0.00
6:53 am 06:53 Cloudy 42 5.6 40 4.4 92 92 NNW 18 30 29.69 1005 10 16 0.00 0.00
7:53 am 07:53 Cloudy 41 5 39 3.9 93 93 NNW 24 39 29.72 1007 10 16 0.00 0.00
8:53 am 08:53 Cloudy with Mist and Fog 41 5 39 3.9 93 93 NNW 22 35 29.75 1007 3 5 0.00 0.00
9:41 am 09:41 Cloudy with Mist and Fog 42 5.6 40 4.4 92 92 NNW 22 35 29.77 1008 3 4 0.00 0.00
9:53 am 09:53 Cloudy with Light Rain 41 5 39 3.9 93 93 NNW 20 31 29.76 1008 2 3 0.00 0.03
10:01 am 10:01 Cloudy with Light Rain 41 5 40 4.4 96 96 NW 21 33 29.77 1008 2 2 0.00 0.03
10:09 am 10:09 Cloudy with Light Rain 42 5.6 40 4.4 92 92 NNW 22 35 29.77 1008 1 2 0.00 0.03
10:25 am 10:25 Cloudy with Light Rain 41 5 40 4.4 96 96 NNW 28 44 29.80 1009 2 3 0.01 0.25
10:46 am 10:46 Cloudy with Light Rain 41 5 39 3.9 93 93 NNW 23 37 29.80 1009 4 6 0.01 0.25
10:53 am 10:53 Cloudy with Light Rain 41 5 39 3.9 93 93 NW 28 44 29.80 1009 5 8 0.01 0.25
11:04 am 11:04 Cloudy with Light Rain 41 5 39 3.9 93 93 NNW 26 43 29.83 1010 6 10 0.00 0.03
11:15 am 11:15 Cloudy with Light Rain 41 5 38 3.3 89 89 NW 26 43 29.83 1010 3 4 0.00 0.03
11:29 am 11:29 Cloudy with Light Rain 40 4.4 37 2.8 89 89 NW 29 46 29.85 1011 3 4 0.00 0.03
11:43 am 11:43 Cloudy with Mist and Fog 39 3.9 36 2.2 89 89 NW 31 50 29.85 1011 3 5 0.00 0.03
11:53 am 11:53 Windy with Snow Likely 38 3.3 35 1.7 89 89 NNW 32 52 29.84 1011 3 5 0.00 0.03
12:06 pm 12:06 Cloudy with Rain 37 3 34 1 87 87 NNW 26 43 29.88 1012 3 4 0.00 0.00
12:15 pm 12:15 Cloudy with Light Rain 37 2.8 34 1.1 89 89 NNW 29 46 29.88 1012 4 6 0.04 1.02
12:53 pm 12:53 Windy with Snow Likely 36 2.2 34 1.1 93 93 NNW 24 39 29.88 1012 6 10 0.06 1.52
1:13 pm 13:13 Cloudy with Light Rain 37 3 36 2 93 93 NNW 23 37 29.91 1013 10 16 0.00 0.00
1:53 pm 13:53 Cloudy with Light Rain 38 3.3 35 1.7 89 89 NW 26 43 29.91 1013 8 13 0.02 0.51
2:12 pm 14:12 Windy with Snow Likely 36 2.2 34 1.1 93 93 NW 26 43 29.97 1015 3 4 0.01 0.25
2:22 pm 14:22 Windy with Snow Likely 37 3 36 2 93 93 NW 28 44 29.97 1015 5 8 0.00 0.00
2:36 pm 14:36 Windy with Snow Likely 36 2 34 1 93 93 NW 30 48 29.97 1015 4 6 0.00 0.00
2:53 pm 14:53 Windy with Snow Likely 37 2.8 35 1.7 93 93 NW 31 50 29.94 1014 4 6 0.03 0.76
3:08 pm 15:08 Cloudy with Light Rain 37 3 36 2 93 93 NW 32 52 30.00 1016 6 10 0.00 0.00
3:17 pm 15:17 Cloudy with Light Rain 38 3.3 35 1.7 89 89 NW 29 46 30.00 1016 6 10 0.02 0.51
3:53 pm 15:53 Windy with Snow Likely 36 2.2 34 1.1 93 93 NNW 29 46 29.98 1015 3 5 0.05 1.27
4:15 pm 16:15 Cloudy with Light Rain 40 4.4 37 2.8 89 89 NNW 31 50 30.03 1017 6 10 0.02 0.51
4:20 pm 16:20 Cloudy with Light Rain 39 4 37 3 93 93 NNW 30 48 30.03 1017 7 11 0.00 0.00
4:24 pm 16:24 Cloudy with Light Rain 39 4 37 3 93 93 NNW 31 50 30.03 1017 7 11 0.00 0.00
4:53 pm 16:53 Mostly Cloudy 44 6.7 39 3.9 83 83 NNW 28 44 30.00 1016 10 16 0.02 0.51
5:07 pm 17:07 Partly Cloudy 44 6.7 37 2.8 76 76 NNW 26 43 30.00 1016 10 16 0.00 0.00
5:53 pm 17:53 Partly Cloudy 46 7.8 38 3.3 73 73 NW 28 44 30.02 1017 10 16 0.00 0.00
6:53 pm 18:53 Sunny 47 8.3 37 2.8 69 69 NW 21 33 30.03 1017 10 16 0.00 0.00
7:53 pm 19:53 Sunny 44 6.7 36 2.2 73 73 WNW 12 19 30.07 1018 10 16 0.00 0.00
8:53 pm 20:53 Clear 42 5.6 34 1.1 73 73 W 9 15 30.10 1019 10 16 0.00 0.00
9:53 pm 21:53 Clear 38 3.3 33 0.6 83 83 WSW 12 19 30.12 1020 10 16 0.00 0.00
10:53 pm 22:53 Clear 40 4.4 33 0.6 77 77 W 15 24 30.12 1020 10 16 0.00 0.00
11:53 pm 23:53 Clear 38 3.3 32 0 79 79 W 13 20 30.13 1020 10 16 0.00 0.00

Powered by AerisWeather